User: anonymous   Login
Location: Unspecified
(0.0000°N, 0.0000°E)
Time: 17:02:48
(UTC+00:00)
Language:

Nadezhda 1 - Orbit

View from above orbital plane
View from above orbital plane
View from above satellite
View from above satellite

Ground track
Ground track

The orbit data is extracted from the following two-line orbital elements,

1 20103U 89050A   18174.92173361  .00000012  00000-0 -25039-5 0  9999
2 20103  82.9615 294.2977 0036516 320.8519 178.7221 13.74564371453199
Epoch (UTC): 23 June 2018 22:07:17
Eccentricity: 0.0036516
inclination: 82.9615°
perigee height: 956 km
apogee height: 1010 km
right ascension of ascending node: 294.2977°
argument of perigee: 320.8519°
revolutions per day: 13.74564371
mean anomaly at epoch: 178.7221°
orbit number at epoch: 45319

The dashed part of the orbit path shows where the satellite is in the earth's shadow,  

DLR